Lake Elmo, MN

1:16 PM CDT on August 30, 2016 (GMT -0500)
St. Paul Lake Elmo

Weather History for K21D - January, 2014

Change the Weather History Date:

Monday, January 20, 2014

  Actual Average (KSTP) Record (KSTP)
Temperature  
Mean Temperature 15 °F -  
Max Temperature 32 °F 21 °F 33 °F (2006)
Min Temperature -4 °F 6 °F -9 °F (2008)
Degree Days  
Heating Degree Days 50    
Moisture  
Dew Point 7 °F    
Average Humidity 70    
Maximum Humidity 86    
Minimum Humidity 46    
Precipitation  
Precipitation 0.00 in - - ()
Sea Level Pressure  
Sea Level Pressure 30.04 in    
Wind  
Wind Speed 10 mph (NNW)    
Max Wind Speed 17 mph    
Max Gust Speed 23 mph    
Visibility 10 miles    
Events Snow    
Averages and records for this station are not official NWS values.
T = Trace of Precipitation, MM = Missing Value Source: NWS Daily Summary

Daily Weather History Graph

Daily Weather History Graph

Search for Another Location

Airport or City:

Trip Planner

Search our weather history database for the weather conditions in past years. The results will help you decide how hot, cold, wet, or windy it might be!

Date:

Astronomy

Jan. 20, 2014 Rise Set
Actual Time 7:42 AM CST 5:02 PM CST
Civil Twilight 7:10 AM CST 5:35 PM CST
Nautical Twilight 6:34 AM CST 6:11 PM CST
Astronomical Twilight 5:59 AM CST 6:45 PM CST
Moon 9:52 PM CST (1/20) 9:29 AM CST (1/20)
Length of Visible Light 10h 24m
Length of Day
9h 19m
Waning Gibbous, 82% of the Moon is Illuminated
Jan 20
Waning Gibbous
Jan 23
Last Quarter
Jan 30
New
Feb 6
First Quarter
Feb 14
Full

Hourly Weather History & Observations

Time (CST) Temp. Windchill Dew Point Humidity Pressure Visibility Wind Dir Wind Speed Gust Speed Precip Events Conditions
12:11 AM 30.2 °F 23.4 °F 26.6 °F 86% 29.70 in 10.0 mi West 6.9 mph - N/A   Overcast
12:32 AM 30.2 °F 22.6 °F 26.6 °F 86% 29.70 in 10.0 mi West 8.1 mph - N/A   Overcast
12:51 AM 30.2 °F 24.3 °F 26.6 °F 86% 29.70 in 10.0 mi West 5.8 mph - N/A   Overcast
1:11 AM 30.2 °F 22.6 °F 26.6 °F 86% 29.70 in 10.0 mi West 8.1 mph - N/A   Overcast
1:31 AM 30.2 °F 21.9 °F 26.6 °F 86% 29.70 in 10.0 mi West 9.2 mph - N/A   Overcast
1:51 AM 30.2 °F 21.9 °F 26.6 °F 86% 29.71 in 10.0 mi West 9.2 mph - N/A   Overcast
2:12 AM 32.0 °F 23.0 °F 26.6 °F 80% 29.71 in 10.0 mi West 11.5 mph - N/A   Overcast
2:31 AM 32.0 °F 25.6 °F 26.6 °F 80% 29.72 in 10.0 mi West 6.9 mph - N/A   Overcast
2:51 AM 32.0 °F 23.6 °F 26.6 °F 80% 29.72 in 10.0 mi West 10.4 mph - N/A   Overcast
3:12 AM 32.0 °F 24.2 °F 26.6 °F 80% 29.72 in 10.0 mi West 9.2 mph - N/A   Overcast
3:31 AM 32.0 °F 23.0 °F 26.6 °F 80% 29.73 in 10.0 mi WNW 11.5 mph 18.4 mph N/A   Overcast
3:51 AM 32.0 °F 25.6 °F 26.6 °F 80% 29.73 in 10.0 mi WNW 6.9 mph - N/A   Overcast
4:11 AM 30.2 °F 21.9 °F 26.6 °F 86% 29.74 in 10.0 mi NW 9.2 mph 16.1 mph N/A   Overcast
4:31 AM 30.2 °F 21.3 °F 26.6 °F 86% 29.75 in 10.0 mi NW 10.4 mph 16.1 mph N/A   Overcast
4:52 AM 30.2 °F 18.9 °F 26.6 °F 86% 29.76 in 10.0 mi NW 16.1 mph 23.0 mph N/A   Overcast
5:11 AM 30.2 °F 21.3 °F 24.8 °F 80% 29.77 in 10.0 mi North 10.4 mph 19.6 mph N/A   Overcast
5:31 AM 28.4 °F 18.5 °F 23.0 °F 80% 29.78 in 10.0 mi North 11.5 mph - N/A   Overcast
5:52 AM 26.6 °F 14.3 °F 23.0 °F 86% 29.79 in 10.0 mi North 16.1 mph - N/A   Overcast
6:11 AM 26.6 °F 16.8 °F 21.2 °F 80% 29.80 in 10.0 mi North 10.4 mph 18.4 mph N/A   Overcast
6:31 AM 24.8 °F 14.0 °F 21.2 °F 86% 29.82 in 10.0 mi North 11.5 mph - N/A   Overcast
6:52 AM 23.0 °F 13.9 °F 19.4 °F 86% 29.84 in 10.0 mi North 8.1 mph - N/A   Overcast
7:11 AM 23.0 °F 12.4 °F 19.4 °F 86% 29.85 in 10.0 mi North 10.4 mph - N/A   Overcast
7:31 AM 21.2 °F 9.5 °F 17.6 °F 86% 29.87 in 10.0 mi North 11.5 mph - N/A   Overcast
7:52 AM 21.2 °F 12.6 °F 15.8 °F 80% 29.87 in 10.0 mi NNE 6.9 mph 16.1 mph N/A   Overcast
8:11 AM 21.2 °F 10.9 °F 14.0 °F 74% 29.88 in 10.0 mi NNE 9.2 mph - N/A   Overcast
8:31 AM 19.4 °F 8.6 °F 14.0 °F 80% 29.89 in 10.0 mi NNE 9.2 mph - N/A   Overcast
8:52 AM 19.4 °F 6.6 °F 12.2 °F 74% 29.93 in 10.0 mi North 12.7 mph 16.1 mph N/A   Overcast
9:11 AM 19.4 °F 8.6 °F 12.2 °F 74% 29.94 in 10.0 mi North 9.2 mph - N/A   Overcast
9:31 AM 19.4 °F 7.9 °F 12.2 °F 74% 29.95 in 5.0 mi North 10.4 mph - N/A Snow Light Snow
9:52 AM 17.6 °F 5.7 °F 14.0 °F 86% 29.97 in 1.0 mi North 10.4 mph - N/A Snow Light Snow
10:11 AM 17.6 °F 5.0 °F 12.2 °F 79% 29.98 in 1.5 mi North 11.5 mph - N/A Snow Light Snow
10:32 AM 17.6 °F 4.3 °F 12.2 °F 79% 30.00 in 4.0 mi North 12.7 mph - N/A Snow Light Snow
10:51 AM 15.8 °F 4.2 °F 10.4 °F 79% 30.01 in 7.0 mi North 9.2 mph - N/A Snow Light Snow
11:11 AM 15.8 °F 3.4 °F 8.6 °F 73% 30.01 in 10.0 mi North 10.4 mph - N/A   Overcast
11:32 AM 14.0 °F -0.2 °F 8.6 °F 79% 30.01 in 10.0 mi North 12.7 mph 18.4 mph N/A   Overcast
11:51 AM 14.0 °F 2.9 °F 8.6 °F 79% 30.02 in 10.0 mi North 8.1 mph - N/A   Overcast
12:11 PM 14.0 °F 2.0 °F 6.8 °F 73% 30.02 in 10.0 mi NNE 9.2 mph 16.1 mph N/A Snow Light Snow
12:32 PM 14.0 °F 2.0 °F 5.0 °F 67% 30.03 in 10.0 mi North 9.2 mph - N/A   Overcast
12:51 PM 12.2 °F -0.2 °F 5.0 °F 73% 30.04 in 10.0 mi North 9.2 mph - N/A   Mostly Cloudy
1:11 PM 12.2 °F -1.8 °F 5.0 °F 73% 30.05 in 10.0 mi North 11.5 mph - N/A   Mostly Cloudy
1:32 PM 12.2 °F -3.1 °F 3.2 °F 67% 30.05 in 10.0 mi North 13.8 mph 17.3 mph N/A   Scattered Clouds
1:51 PM 12.2 °F -1.8 °F 3.2 °F 67% 30.06 in 10.0 mi North 11.5 mph 18.4 mph N/A   Mostly Cloudy
2:11 PM 12.2 °F -0.2 °F 3.2 °F 67% 30.07 in 7.0 mi North 9.2 mph - N/A   Mostly Cloudy
2:32 PM 12.2 °F -2.5 °F 3.2 °F 67% 30.09 in 10.0 mi North 12.7 mph 16.1 mph N/A   Scattered Clouds
2:51 PM 12.2 °F -2.5 °F 1.4 °F 62% 30.11 in 10.0 mi North 12.7 mph 20.7 mph N/A   Scattered Clouds
3:11 PM 12.2 °F -3.7 °F 1.4 °F 62% 30.13 in 10.0 mi North 15.0 mph 20.7 mph N/A   Scattered Clouds
3:31 PM 10.4 °F -6.0 °F 1.4 °F 67% 30.15 in 10.0 mi North 15.0 mph 18.4 mph N/A   Mostly Cloudy
3:51 PM 10.4 °F -5.4 °F -0.4 °F 62% 30.16 in 10.0 mi North 13.8 mph 21.9 mph N/A   Mostly Cloudy
4:12 PM 10.4 °F -4.8 °F -0.4 °F 62% 30.18 in 10.0 mi North 12.7 mph 19.6 mph N/A   Mostly Cloudy
4:31 PM 8.6 °F -7.7 °F -0.4 °F 67% 30.20 in 10.0 mi North 13.8 mph 21.9 mph N/A   Overcast
4:51 PM 8.6 °F -6.3 °F -0.4 °F 67% 30.22 in 10.0 mi North 11.5 mph 18.4 mph N/A   Overcast
5:12 PM 8.6 °F -7.0 °F -2.2 °F 62% 30.23 in 10.0 mi North 12.7 mph 19.6 mph N/A   Overcast
5:31 PM 8.6 °F -7.7 °F -4.0 °F 57% 30.24 in 10.0 mi North 13.8 mph 18.4 mph N/A   Overcast
5:51 PM 8.6 °F -8.9 °F -5.8 °F 52% 30.26 in 10.0 mi North 16.1 mph - N/A   Overcast
6:12 PM 6.8 °F -11.8 °F -7.6 °F 52% 30.27 in 10.0 mi North 17.3 mph 23.0 mph N/A   Overcast
6:31 PM 6.8 °F -11.3 °F -7.6 °F 52% 30.29 in 10.0 mi North 16.1 mph 21.9 mph N/A   Overcast
6:51 PM 5.0 °F -11.6 °F -7.6 °F 56% 30.31 in 10.0 mi North 12.7 mph 20.7 mph N/A   Scattered Clouds
7:12 PM 5.0 °F -12.3 °F -9.4 °F 52% 30.32 in 10.0 mi North 13.8 mph 19.6 mph N/A   Clear
7:31 PM 3.2 °F -13.9 °F -11.2 °F 51% 30.33 in 10.0 mi North 12.7 mph 17.3 mph N/A   Clear
7:51 PM 3.2 °F -13.1 °F -13.0 °F 47% 30.34 in 10.0 mi North 11.5 mph - N/A   Clear
8:12 PM 3.2 °F -13.1 °F -13.0 °F 47% 30.36 in 10.0 mi North 11.5 mph 18.4 mph N/A   Clear
8:31 PM 1.4 °F -14.5 °F -13.0 °F 51% 30.36 in 10.0 mi North 10.4 mph 18.4 mph N/A   Clear
8:51 PM 1.4 °F -16.1 °F -13.0 °F 51% 30.37 in 10.0 mi North 12.7 mph 18.4 mph N/A   Clear
9:11 PM 1.4 °F -16.1 °F -14.8 °F 47% 30.37 in 10.0 mi North 12.7 mph 17.3 mph N/A   Clear
9:31 PM 1.4 °F -14.5 °F -14.8 °F 47% 30.38 in 10.0 mi NNW 10.4 mph - N/A   Clear
9:52 PM -0.4 °F -16.7 °F -14.8 °F 51% 30.39 in 10.0 mi North 10.4 mph 16.1 mph N/A   Clear
10:11 PM -0.4 °F -18.4 °F -14.8 °F 51% 30.40 in 10.0 mi North 12.7 mph 17.3 mph N/A   Clear
10:31 PM -0.4 °F -15.7 °F -16.6 °F 46% 30.40 in 10.0 mi North 9.2 mph 17.3 mph N/A   Clear
10:52 PM -0.4 °F -13.4 °F -16.6 °F 46% 30.41 in 10.0 mi North 6.9 mph - N/A   Clear
11:11 PM -2.2 °F -16.8 °F -16.6 °F 50% 30.41 in 10.0 mi NNW 8.1 mph - N/A   Clear
11:31 PM -2.2 °F -16.8 °F -16.6 °F 50% 30.42 in 10.0 mi NNW 8.1 mph - N/A   Clear
11:52 PM -4.0 °F -16.3 °F -16.6 °F 55% 30.42 in 10.0 mi NNW 5.8 mph - N/A   Clear